GW2173 Weather Reports


time (UTC)temp
C
wind
direction
speed
KPH
gust
KPH
rain 1hr
cm
rain 24hr
cm
rain mn
cm
humidity
%
barometer
mb
20260502152252 8 129 6.4 20.9 0.00 0.00 0.00 59 1012.5
20260502151751 8 139 8.0 20.9 0.00 0.00 0.00 57 1012.7
20260502151251 8 150 8.0 24.1 0.00 0.00 0.00 59 1012.9
20260502150751 8 146 9.7 24.1 0.00 0.00 0.00 60 1012.7
20260502130655 5 157 9.7 20.9 0.00 0.00 0.00 87 1013.2
20260502130155 5 154 6.4 20.9 0.00 0.00 0.00 89 1013.2
20260502123638 3 128 6.4 20.9 0.00 0.00 0.00 96 1013.2
20260502123137 3 126 3.2 20.9 0.00 0.00 0.00 97 1012.9
20260502122637 3 99 4.8 20.9 0.00 0.00 0.00 97 1013.1
20260502122137 3 106 4.8 20.9 0.00 0.00 0.00 97 1013.0
20260502121636 3 117 4.8 20.9 0.00 0.00 0.00 97 1013.2
20260502121135 3 91 3.2 20.9 0.00 0.00 0.00 97 1013.0
20260502115604 3 62 3.2 20.9 0.00 0.00 0.00 98 1012.9
20260502115104 3 27 3.2 20.9 0.00 0.00 0.00 98 1013.1
20260502114603 3 81 1.6 20.9 0.00 0.00 0.00 98 1013.5
20260502114104 3 25 1.6 20.9 0.00 0.00 0.00 98 1013.3
20260502113603 3 35 1.6 20.9 0.00 0.00 0.00 98 1013.4
20260502113103 3 74 1.6 20.9 0.00 0.00 0.00 98 1013.3
20260502112602 2 57 1.6 20.9 0.00 0.00 0.00 98 1013.0
20260502112102 2 83 1.6 20.9 0.00 0.00 0.00 98 1012.7
20260502111602 2 108 3.2 20.9 0.00 0.00 0.00 98 1013.0
20260502111102 2 24 1.6 20.9 0.00 0.00 0.00 97 1013.4
20260502110600 2 25 1.6 20.9 0.00 0.00 0.00 97 1013.5
20260502110100 2 64 1.6 20.9 0.00 0.00 0.00 97 1013.2
20260502105559 2 67 3.2 20.9 0.00 0.00 0.00 97 1013.3
20260502104544 2 56 1.6 20.9 0.00 0.00 0.00 97 1013.5
20260502104043 2 21 1.6 20.9 0.00 0.00 0.00 97 1013.1
20260502103542 2 21 1.6 20.9 0.00 0.00 0.00 97 1013.2
20260502103041 2 21 3.2 20.9 0.00 0.00 0.00 97 1013.1
20260502102026 2 26 3.2 20.9 0.00 0.00 0.00 97 1013.2
20260502101009 2 29 3.2 20.9 0.00 0.00 0.00 97 1013.4
20260502100508 3 18 3.2 20.9 0.00 0.00 0.00 97 1013.4
20260502090930 3 6 4.8 20.9 0.00 0.00 0.00 95 1013.1
20260502071247 4 56 3.2 20.9 0.00 0.00 0.00 94 1012.9
20260502070745 5 18 3.2 20.9 0.00 0.00 0.00 94 1012.9
20260502070245 5 13 0.0 20.9 0.00 0.00 0.00 94 1012.9
20260502065744 5 34 4.8 20.9 0.00 0.00 0.00 94 1012.9
20260502065245 5 38 0.0 20.9 0.00 0.00 0.00 93 1013.1
20260502064744 5 31 0.0 20.9 0.00 0.00 0.00 92 1013.1
20260502064243 5 31 0.0 20.9 0.00 0.00 0.00 92 1013.2
20260502063743 5 334 0.0 20.9 0.00 0.00 0.00 91 1013.0
20260502063243 5 343 0.0 20.9 0.00 0.00 0.00 91 1013.0
20260502061713 5 114 1.6 20.9 0.00 0.00 0.00 89 1013.0
20260502060655 6 151 0.0 20.9 0.00 0.00 0.00 87 1013.3
20260502060155 6 151 0.0 20.9 0.00 0.00 0.00 88 1013.3
20260502055654 5 152 0.0 20.9 0.00 0.00 0.00 88 1013.2
20260502055155 5 151 0.0 20.9 0.00 0.00 0.00 88 1013.4
20260502054653 5 152 0.0 20.9 0.00 0.00 0.00 89 1013.3
20260502054153 5 152 0.0 20.9 0.00 0.00 0.00 89 1013.2
20260502053652 5 152 0.0 20.9 0.00 0.00 0.00 89 1013.2
20260502053152 5 153 0.0 20.9 0.00 0.00 0.00 89 1013.4
20260502052651 6 152 0.0 20.9 0.00 0.00 0.00 88 1013.3
20260502052151 6 153 0.0 20.9 0.00 0.00 0.00 87 1013.4
20260502051650 6 153 0.0 20.9 0.00 0.00 0.00 87 1013.3
20260502051150 6 154 0.0 20.9 0.00 0.00 0.00 87 1013.6
20260502050650 6 154 0.0 20.9 0.00 0.00 0.00 88 1013.6
20260502045632 5 152 0.0 20.9 0.00 0.00 0.00 88 1013.7
20260502045133 5 135 0.0 20.9 0.00 0.00 0.00 89 1013.4
20260502044632 5 101 0.0 20.9 0.00 0.00 0.00 89 1013.5
20260502044132 5 89 0.0 20.9 0.00 0.00 0.00 89 1013.4
20260502043631 5 79 0.0 20.9 0.00 0.00 0.00 89 1013.4
20260502043130 5 80 0.0 20.9 0.00 0.00 0.00 88 1013.4
20260502042630 5 108 0.0 20.9 0.00 0.00 0.00 87 1013.6
20260502042130 5 128 0.0 20.9 0.00 0.00 0.00 87 1013.5
20260502041630 5 122 0.0 20.9 0.00 0.00 0.00 88 1013.5
20260502041130 5 128 0.0 20.9 0.00 0.00 0.00 88 1013.7
20260502035557 5 129 3.2 20.9 0.00 0.00 0.08 87 1013.7
20260502035057 6 126 3.2 20.9 0.00 0.00 0.08 87 1013.2
20260502034557 6 128 1.6 20.9 0.00 0.00 0.08 87 1013.4
20260502034056 6 120 3.2 20.9 0.00 0.00 0.08 87 1013.5
20260502033556 6 96 3.2 20.9 0.00 0.00 0.08 87 1013.4
20260502033056 6 78 3.2 20.9 0.00 0.00 0.08 87 1013.4
20260502032556 6 59 3.2 20.9 0.00 0.00 0.08 87 1013.7
20260502032056 5 51 3.2 20.9 0.00 0.00 0.08 87 1013.6
20260502031049 6 116 3.2 20.9 0.00 0.00 0.08 86 1013.5
20260502030549 6 112 3.2 20.9 0.00 0.00 0.08 86 1013.7
20260502030049 6 106 3.2 20.9 0.00 0.00 0.08 86 1013.5
20260502025549 6 123 3.2 20.9 0.00 0.00 0.08 85 1013.5
20260502024534 6 122 3.2 20.9 0.00 0.00 0.08 85 1013.4
20260502024034 6 123 3.2 20.9 0.00 0.00 0.08 85 1013.1
20260502022501 6 149 3.2 20.9 0.00 0.00 0.08 85 1012.8
20260502022000 6 148 3.2 20.9 0.00 0.00 0.08 85 1013.1
20260502020428 6 147 3.2 20.9 0.00 0.00 0.08 85 1012.7
20260502015927 6 146 3.2 20.9 0.00 0.00 0.08 84 1012.8
20260502015427 6 150 3.2 20.9 0.00 0.00 0.08 84 1013.0
20260502014927 6 151 4.8 20.9 0.00 0.00 0.08 84 1012.6
20260502013911 7 146 4.8 20.9 0.00 0.00 0.08 82 1012.6
20260502013411 7 151 6.4 20.9 0.00 0.00 0.08 82 1012.3
20260502012910 7 147 6.4 20.9 0.00 0.00 0.08 81 1012.7
20260502012409 7 146 4.8 20.9 0.00 0.00 0.08 81 1012.7
20260502011909 7 156 4.8 20.9 0.00 0.00 0.08 81 1012.3
20260502011408 7 163 3.2 20.9 0.00 0.00 0.08 80 1012.2
20260502005322 7 150 4.8 20.9 0.00 0.00 0.08 79 1012.0
20260502004821 7 138 4.8 20.9 0.00 0.00 0.08 78 1011.4
20260502004320 7 134 6.4 20.9 0.00 0.00 0.08 78 1011.6
20260502003820 7 155 8.0 20.9 0.00 0.00 0.08 78 1011.4
20260502003320 8 144 9.7 29.0 0.00 0.00 0.08 77 1011.5
20260502002820 8 151 12.9 29.0 0.00 0.00 0.08 77 1011.4
20260502002320 8 141 14.5 29.0 0.00 0.00 0.08 76 1011.2
20260502001819 8 129 14.5 29.0 0.00 0.00 0.08 75 1011.3
20260502001318 8 133 11.3 30.6 0.00 0.00 0.08 75 1011.1
20260502000817 8 123 12.9 30.6 0.00 0.00 0.08 74 1010.8
20260502000317 8 109 9.7 29.0 0.00 0.00 0.08 74 1010.8
20260501235816 8 117 16.1 29.0 0.00 0.00 0.08 73 1010.8
20260501235315 9 116 9.7 22.5 0.00 0.00 0.08 73 1010.5
20260501234814 9 134 12.9 30.6 0.00 0.00 0.08 72 1010.6
20260501233758 10 135 16.1 30.6 0.00 0.00 0.08 71 1010.3
20260501233257 10 134 12.9 32.2 0.00 0.00 0.08 71 1010.3
20260501231725 10 119 19.3 37.0 0.00 0.00 0.08 69 1010.1
20260501231225 10 89 20.9 37.0 0.00 0.00 0.08 70 1009.8
20260501230724 10 112 19.3 33.8 0.00 0.00 0.08 72 1010.0
20260501224637 11 130 14.5 30.6 0.00 0.00 0.08 69 1009.8
20260501224137 11 125 14.5 30.6 0.00 0.00 0.08 68 1009.8
20260501223636 11 108 11.3 29.0 0.00 0.00 0.08 69 1009.6
20260501223136 11 133 16.1 29.0 0.00 0.00 0.08 69 1009.5
20260501222636 11 139 17.7 25.7 0.00 0.00 0.08 70 1009.2
20260501222135 11 92 9.7 19.3 0.00 0.00 0.08 79 1009.0
20260501221119 11 124 6.4 20.9 0.00 0.00 0.08 83 1009.0
20260501220618 11 115 6.4 20.9 0.00 0.00 0.08 83 1009.4
20260501220118 11 39 4.8 20.9 0.00 0.00 0.08 84 1009.6
20260501215617 11 26 4.8 20.9 0.00 0.00 0.08 84 1009.0
20260501215117 11 65 4.8 20.9 0.00 0.00 0.08 83 1009.3
20260501214617 11 13 8.0 20.9 0.00 0.00 0.08 83 1009.0
20260501214116 11 122 6.4 20.9 0.00 0.00 0.08 84 1008.8
20260501213615 11 72 4.8 17.7 0.00 0.00 0.08 87 1008.8
20260501213114 11 106 4.8 22.5 0.00 0.00 0.08 89 1008.9
20260501212613 11 108 3.2 22.5 0.00 0.00 0.08 90 1008.9
20260501212113 10 85 12.9 22.5 0.00 0.00 0.08 89 1009.0
20260501211613 10 75 4.8 20.9 0.00 0.00 0.08 90 1008.7
20260501211113 10 40 6.4 20.9 0.00 0.00 0.08 92 1008.6
20260501210613 10 86 4.8 20.9 0.00 0.00 0.08 92 1008.7
20260501210112 9 79 3.2 20.9 0.00 0.00 0.08 92 1008.8
20260501205612 9 73 4.8 20.9 0.03 0.00 0.08 92 1009.1
20260501205111 9 42 4.8 20.9 0.03 0.00 0.08 92 1008.8
20260501204611 9 38 4.8 20.9 0.03 0.00 0.08 93 1009.2
20260501204110 9 43 3.2 20.9 0.03 0.00 0.08 93 1009.0
20260501202540 9 72 4.8 20.9 0.03 0.00 0.08 92 1009.3
20260501202040 9 82 4.8 20.9 0.03 0.00 0.08 92 1009.1
20260501201539 9 68 4.8 20.9 0.03 0.00 0.08 92 1009.5
20260501200522 9 88 6.4 20.9 0.03 0.00 0.08 91 1009.2
20260501200021 9 85 6.4 20.9 0.03 0.00 0.08 90 1008.9
20260501195520 10 80 9.7 20.9 0.00 0.00 0.03 90 1008.6
20260501195019 10 88 9.7 20.9 0.00 0.00 0.03 89 1008.7
20260501194518 10 101 8.0 20.9 0.00 0.00 0.03 89 1008.7
20260501194018 10 68 11.3 24.1 0.00 0.00 0.03 88 1008.8
20260501193518 10 70 12.9 24.1 0.00 0.00 0.03 88 1008.9
20260501193018 10 94 8.0 19.3 0.00 0.00 0.03 88 1008.6
20260501192518 10 105 9.7 20.9 0.00 0.00 0.03 87 1009.0
20260501192017 10 120 9.7 20.9 0.00 0.00 0.03 87 1008.7
20260501191516 10 104 8.0 24.1 0.00 0.00 0.03 87 1008.6
20260501191015 10 97 8.0 24.1 0.00 0.00 0.03 86 1008.7
20260501185958 10 87 6.4 24.1 0.00 0.00 0.03 85 1008.8
20260501185458 10 84 4.8 24.1 0.00 0.00 0.03 85 1008.7
20260501184958 10 100 6.4 24.1 0.00 0.00 0.03 85 1008.6
20260501184458 11 50 4.8 24.1 0.00 0.00 0.03 85 1008.6
20260501183957 11 75 8.0 24.1 0.00 0.00 0.03 84 1008.3
20260501183457 11 76 6.4 24.1 0.00 0.00 0.03 83 1008.4
20260501182957 11 105 6.4 24.1 0.00 0.00 0.03 82 1008.5
20260501182456 11 96 8.0 25.7 0.00 0.00 0.03 80 1008.5
20260501181955 11 107 11.3 29.0 0.00 0.00 0.03 76 1008.5
20260501181454 11 111 14.5 29.0 0.00 0.00 0.03 74 1008.4
20260501180437 12 35 8.0 32.2 0.00 0.00 0.03 66 1008.3
20260501175420 13 121 17.7 25.7 0.00 0.00 0.03 61 1008.3
20260501174405 13 83 9.7 20.9 0.00 0.00 0.03 60 1008.3
20260501173904 13 89 6.4 19.3 0.00 0.00 0.03 59 1007.9
20260501172849 13 61 8.0 19.3 0.00 0.00 0.03 58 1008.1
20260501172348 14 58 9.7 19.3 0.00 0.00 0.03 57 1008.1
20260501171333 14 50 8.0 19.3 0.00 0.00 0.03 58 1008.3
20260501170832 14 353 9.7 19.3 0.00 0.00 0.03 57 1008.4
20260501170332 14 60 8.0 19.3 0.00 0.00 0.03 58 1008.3
20260501165316 13 62 4.8 19.3 0.00 0.00 0.03 60 1008.3
20260501164815 13 62 8.0 19.3 0.00 0.00 0.03 61 1008.5
20260501164315 13 32 6.4 19.3 0.00 0.00 0.03 61 1008.4
20260501163815 13 56 4.8 19.3 0.00 0.00 0.03 60 1008.7
20260501163314 13 57 8.0 19.3 0.00 0.00 0.03 60 1008.5
20260501162814 13 39 6.4 19.3 0.00 0.00 0.03 59 1008.5
20260501161757 13 334 9.7 19.3 0.00 0.00 0.03 59 1008.5
20260501161257 13 353 4.8 19.3 0.00 0.00 0.03 60 1008.7
20260501160756 13 41 8.0 19.3 0.00 0.00 0.03 60 1008.6
20260501160255 13 48 9.7 19.3 0.00 0.00 0.03 58 1008.6